RH
10 16 16 13 10 10 11 12 12 11 13 17 32 36 31 21 22 26 31 32 34 37 37 42 45 46 48 50 56 57 62 66 75 74 76 75 72 76 75 70 69 67 75 70
12 16 13 11 10 9 10 12 13 11 13 17 34 33 25 20 20 21 25 31 33 35 35 38 42 46 48 51 53 57 60 63 78 78 77 76 69 78 70 69 62 68 68 72
13 13 11 10 11 12 11 13 13 13 12 15 32 43 38 26 21 22 24 26 30 32 35 35 40 42 46 49 53 56 59 64 72 81 83 85 78 75 72 71 71 82 76 76
12 10 10 10 9 9 15 10 11 11 13 21 20 36 46 33 36 37 29 22 26 30 32 33 38 41 45 46 48 53 57 62 69 76 81 82 70 65 70 75 71 75 69 71
10 11 11 10 7 7 12 10 11 11 13 24 21 26 32 34 41 44 32 21 22 24 28 33 36 38 42 45 46 50 54 61 66 73 76 77 74 67 72 77 76 65 67 78
11 8 7 9 7 6 6 10 11 12 14 19 23 23 30 31 40 43 25 20 20 21 24 25 31 36 40 43 47 49 53 58 63 70 76 74 75 67 71 71 62 68 73 72
9 9 8 6 8 7 6 10 16 19 20 23 16 24 31 19 20 21 22 20 20 20 23 25 34 39 40 43 47 50 52 55 61 69 72 73 80 73 48 52 58 63 70 72
14 14 9 8 7 8 7 8 13 26 24 20 16 18 18 16 18 17 20 20 20 19 22 24 24 34 40 42 46 50 52 54 60 68 72 74 75 69 52 66 74 69 64 67
12 13 9 8 7 6 8 9 7 12 17 23 16 14 12 17 17 17 18 20 18 18 20 24 24 30 38 42 43 47 55 56 58 64 71 67 76 69 58 61 73 79 71 69
12 19 10 8 7 6 6 7 10 9 16 21 16 19 20 18 20 22 23 21 17 16 20 23 25 27 34 38 39 44 51 56 57 62 68 64 62 66 61 56 64 74 75 66
8 11 11 11 10 8 8 8 8 10 10 16 22 18 14 18 24 24 20 18 18 15 17 22 23 25 29 39 40 43 50 58 62 59 63 66 56 63 63 55 54 65 75 76
9 11 14 12 9 7 7 10 8 15 16 18 14 14 12 9 18 19 18 16 11 12 19 23 23 30 34 38 42 43 47 52 60 60 61 61 59 55 66 54 53 55 66 71
10 11 16 16 11 9 9 8 9 7 14 17 26 15 8 7 11 10 12 14 13 11 20 23 24 31 35 36 41 46 48 49 54 59 61 61 60 53 59 55 53 47 58 66
20 12 13 16 16 12 16 9 8 8 10 10 10 10 12 12 18 18 14 11 9 11 14 22 26 27 34 35 39 47 52 48 50 56 60 61 58 46 42 40 41 54 56 67
15 15 12 13 12 11 9 11 9 10 9 12 10 9 10 10 21 22 13 13 10 11 16 19 23 25 25 33 39 45 50 50 47 55 61 57 50 52 44 50 43 42 62 68
28 28 24 22 14 11 11 10 11 8 8 9 9 10 11 10 8 18 16 10 8 11 14 14 18 21 24 29 35 41 48 51 46 50 54 57 58 60 60 56 45 53 60 68
34 36 34 23 19 18 18 11 11 13 8 9 11 9 10 11 13 16 14 13 9 9 15 16 16 19 21 22 24 35 39 45 47 43 49 52 56 61 64 72 70 71 77 90
31 33 37 25 28 36 20 14 12 13 13 10 11 13 15 15 9 9 8 7 10 12 10 14 10 14 18 23 24 24 34 44 46 43 43 48 51 54 63 70 75 81 86 90
23 28 37 33 32 24 21 16 15 16 16 16 32 30 21 17 12 10 6 6 6 9 11 9 12 11 10 19 24 26 36 40 43 45 39 43 43 47 61 72 74 85 92 95
20 31 40 32 33 33 21 20 22 20 38 36 38 39 35 30 35 27 18 22 11 8 6 9 7 8 13 17 23 30 30 40 40 41 39 39 46 48 64 77 74 85 80 74
39 37 40 42 29 29 36 33 22 38 52 36 32 32 34 38 38 24 18 22 20 18 11 10 6 7 9 15 24 31 32 36 33 38 46 44 48 58 69 75 74 69 70 70
69 79 42 45 42 40 40 35 36 58 44 46 48 46 32 27 24 22 22 24 25 23 17 20 16 10 9 16 25 33 36 38 48 49 50 56 59 69 74 69 64 65 72 85
68 69 72 42 50 50 36 43 43 50 70 70 66 70 46 50 63 52 37 32 32 30 25 24 28 27 21 22 30 38 45 50 53 54 63 76 78 86 91 63 63 82 83 99
50 70 52 59 33 42 45 32 64 47 64 70 76 73 60 70 63 65 55 47 45 43 45 40 43 53 54 48 45 44 52 61 63 64 81 92 91 88 88 86 74 73 93 96
87 82 85 78 63 67 75 71 63 65 66 64 64 61 64 64 71 68 65 62 65 68 59 57 56 57 63 64 64 65 70 73 75 78 74 76 86 96 96 83 90 93 95 93
86 94 97 97 94 94 65 47 51 54 54 52 52 55 51 55 68 66 64 67 76 70 98 67 73 77 79 74 75 77 76 73 72 68 77 85 96 79 80 87 96 98 92 88
Wind_Speed
23 8 16 13 15 12 14 16 17 16 9 10 10 11 12 20 18 13 34 37 40 41 38 38 38 37 33 34 33 35 33 26 24 23 19 18 22 17 16 20 18 18 15 15
10 17 12 10 11 17 20 19 19 16 12 8 14 16 18 18 20 26 29 37 40 42 43 39 42 39 40 38 39 37 35 33 27 25 24 21 21 19 18 14 16 16 16 12
16 10 17 17 18 19 22 20 18 12 12 12 16 2 6 8 6 20 22 39 42 45 46 46 46 43 43 43 42 41 38 34 35 29 26 22 18 21 20 20 20 21 18 15
14 18 19 23 23 20 19 22 21 21 13 8 12 6 6 11 6 6 24 35 40 44 48 51 50 48 46 45 42 40 38 36 35 37 32 29 24 25 24 18 21 19 15 15
19 16 20 20 22 19 20 13 21 21 13 7 16 4 7 13 19 29 28 38 41 44 48 52 54 54 50 48 45 43 40 37 35 35 37 34 26 25 19 18 18 17 19 16
17 18 17 18 15 21 17 15 17 17 11 11 12 13 7 11 25 26 28 34 41 43 49 48 54 53 52 50 48 46 43 40 37 32 33 33 27 23 26 26 25 22 25 20
16 21 22 17 17 14 20 11 12 12 10 8 10 12 9 17 12 25 24 33 36 43 45 48 50 54 55 53 50 48 46 42 38 34 32 35 31 27 26 26 26 25 27 23
15 17 24 15 21 18 13 18 13 13 13 9 9 13 8 15 16 31 29 39 38 33 44 50 54 57 57 55 51 48 47 44 40 36 33 34 37 33 31 29 21 29 26 21
15 16 9 24 20 18 14 19 15 6 8 6 8 9 13 15 16 19 23 32 39 36 34 46 55 56 58 56 53 50 48 45 41 36 35 35 38 40 36 34 26 26 23 20
9 7 19 19 23 18 20 8 13 15 17 18 16 11 12 7 17 15 15 22 36 36 41 41 52 56 57 58 54 49 47 46 42 38 36 36 39 40 39 37 36 30 28 28
23 16 19 9 16 22 12 17 13 8 15 13 9 16 8 11 12 19 20 36 36 43 47 45 56 59 58 56 54 52 49 46 45 41 39 36 39 41 38 39 40 38 32 33
19 15 14 23 19 20 24 12 13 8 9 6 9 15 10 17 0 21 28 31 35 24 57 53 55 50 53 55 54 55 53 50 46 43 41 38 37 40 40 40 41 42 41 38
14 18 11 14 14 19 19 21 12 19 4 13 6 17 18 20 1 5 3 16 30 26 42 47 48 49 53 54 54 55 54 51 48 45 44 41 39 41 43 42 41 43 43 41
16 12 26 18 13 6 9 21 22 16 15 14 23 13 15 8 8 9 29 26 19 17 26 45 46 51 54 54 53 55 55 52 49 47 46 44 43 43 44 42 43 44 43 43
6 18 18 17 17 18 25 15 25 22 20 15 13 19 13 17 10 11 14 24 27 18 25 45 50 54 49 54 55 54 55 54 49 48 48 47 45 44 44 44 42 43 47 46
12 10 10 8 12 21 21 19 19 26 23 19 17 20 6 12 20 9 19 24 20 9 20 36 38 41 49 53 55 56 55 54 50 48 48 47 46 46 46 46 43 42 41 44
12 5 4 10 7 8 15 27 20 11 23 21 19 19 8 10 8 4 22 26 12 12 26 32 32 40 48 50 50 56 57 56 55 50 49 48 46 46 47 47 44 43 40 37
19 15 8 6 6 8 10 9 12 14 7 13 10 12 11 12 26 16 9 7 2 10 15 24 27 29 28 39 52 51 57 59 57 54 51 49 48 46 45 45 44 42 40 38
15 11 6 5 8 3 8 11 4 7 10 1 8 8 4 4 11 13 18 17 21 27 38 28 23 30 28 34 37 54 56 61 59 58 54 53 49 48 48 47 42 43 39 37
14 7 3 3 6 14 5 5 9 5 2 6 10 8 8 8 3 4 12 7 17 31 30 33 36 27 30 37 39 45 56 59 62 60 59 56 53 50 51 47 43 41 33 25
5 3 4 5 6 4 4 5 6 4 4 4 11 8 7 3 2 14 14 5 2 8 17 22 32 32 26 27 40 43 47 56 62 60 53 54 50 50 49 42 39 30 26 27
4 9 7 4 4 3 8 8 6 3 11 15 17 15 8 10 13 12 9 7 5 6 3 4 17 38 33 25 44 47 47 48 45 43 43 41 45 45 41 34 29 26 28 28
3 7 4 8 5 3 14 10 1 14 20 19 19 18 16 23 27 21 9 3 3 3 8 10 9 26 32 33 42 44 42 40 39 40 39 39 39 34 32 29 29 28 23 19
6 7 5 8 8 3 8 11 21 19 19 17 19 22 22 24 20 20 16 8 5 0 16 18 22 23 22 28 34 36 36 35 39 41 37 33 29 28 26 24 22 21 19 17
1 7 4 6 5 9 25 17 29 30 24 24 27 28 25 23 25 22 17 14 12 14 22 24 28 28 24 24 28 31 32 35 37 36 33 31 29 28 26 23 21 18 17 15
2 3 2 2 11 8 6 25 27 31 27 28 30 29 26 20 20 15 17 12 8 8 22 35 34 34 31 27 29 29 27 25 27 27 28 28 29 27 26 26 24 20 16 16
Wind_Direction
220 213 225 215 217 231 245 247 250 247 194 137 144 163 193 192 181 193 172 175 179 189 199 201 196 198 199 202 201 207 205 211 217 218 215 206 192 200 213 229 230 240 244 257
217 223 226 222 233 224 245 254 264 280 195 145 157 184 192 201 208 202 188 178 181 186 193 198 197 199 202 207 212 211 214 212 214 219 220 217 209 206 212 226 207 223 235 250
219 222 218 231 227 222 231 245 259 259 259 188 168 268 214 265 189 200 218 183 185 187 190 195 198 199 202 206 212 216 216 214 212 215 216 216 220 218 223 220 225 228 228 236
229 221 219 218 231 224 221 235 251 262 269 244 188 217 206 218 166 315 275 193 189 189 192 195 197 197 201 208 214 218 220 218 215 216 221 222 222 208 213 223 227 229 232 243
227 211 224 232 222 233 232 224 241 257 260 161 220 271 188 184 173 197 235 196 194 191 190 195 198 201 203 206 211 218 221 218 220 216 222 224 223 222 217 213 226 228 231 227
240 236 234 239 238 222 243 232 248 253 253 250 215 217 225 184 190 211 209 199 192 193 195 201 203 203 202 206 209 213 216 219 222 221 219 219 211 211 213 215 218 224 224 219
238 236 246 231 238 228 218 224 239 250 242 232 220 214 218 213 219 198 191 198 194 192 193 196 197 199 201 203 206 210 213 216 221 220 216 215 210 207 201 199 215 225 214 215
216 235 227 226 221 226 215 217 227 230 232 254 252 231 243 208 204 193 175 199 188 195 199 197 204 203 202 202 205 208 212 214 217 218 216 212 214 214 206 207 221 216 223 227
204 229 242 219 239 212 230 215 223 247 244 255 243 262 259 212 217 199 176 171 188 208 204 203 202 204 202 201 205 208 211 214 216 219 216 215 214 220 215 207 210 216 222 230
237 233 223 230 217 234 212 208 206 225 232 243 251 248 244 280 196 178 171 182 195 212 209 211 198 205 207 205 205 208 213 213 215 217 219 219 218 221 219 214 211 212 220 229
218 240 259 260 212 209 225 220 227 197 223 237 239 247 243 232 192 181 187 199 199 198 204 200 201 205 208 203 203 204 209 212 211 217 220 222 222 221 220 217 218 217 218 225
198 213 232 251 257 214 208 198 204 220 231 248 239 254 275 240 199 203 193 205 219 203 206 200 196 193 199 202 203 205 207 211 214 216 221 225 225 223 222 220 218 221 223 229
203 211 221 244 257 248 220 211 203 221 159 232 193 248 246 258 317 151 293 209 222 218 188 187 187 188 195 201 203 202 206 210 215 217 221 226 227 226 225 222 221 225 223 225
313 201 213 220 228 237 241 209 206 198 220 234 242 261 278 252 202 199 195 218 243 210 191 182 181 190 195 200 204 201 201 210 215 219 222 225 228 229 229 229 225 227 228 229
283 243 224 225 215 210 236 241 204 209 214 209 239 235 242 261 213 215 212 205 202 193 178 175 185 191 200 201 204 204 202 206 215 218 222 226 230 231 231 232 233 229 230 235
322 293 177 209 212 225 236 234 237 209 215 227 237 251 218 252 226 246 228 175 186 178 204 201 190 190 199 204 204 204 204 206 209 217 223 226 229 231 231 233 234 237 234 234
284 312 277 217 179 237 248 231 244 245 215 210 220 237 217 263 262 225 230 203 174 276 206 186 200 202 205 209 212 207 208 207 208 215 220 224 226 229 231 232 234 237 238 235
269 280 275 198 144 212 242 198 219 234 243 208 212 202 197 211 239 226 214 265 91 260 286 217 207 212 210 215 213 219 211 207 210 211 219 220 225 228 229 231 233 235 235 236
252 255 284 207 189 281 280 263 234 210 244 16 84 47 44 340 249 247 232 220 206 217 240 259 239 204 213 212 214 215 210 209 209 212 216 221 221 226 227 225 229 231 230 233
232 232 167 236 181 218 212 168 52 47 105 46 78 62 53 38 53 254 9 28 195 209 218 220 246 252 241 213 211 211 213 209 209 215 216 220 220 223 223 221 224 227 233 238
294 359 288 261 182 270 51 8 122 128 216 15 66 61 51 69 227 319 324 291 262 227 232 236 235 233 239 230 212 209 209 212 218 212 211 216 218 217 219 214 220 228 232 233
359 345 297 292 95 161 5 21 123 189 41 51 53 39 23 345 330 320 315 256 316 296 278 223 225 222 218 228 211 207 204 210 197 202 202 208 211 212 212 217 222 225 230 228
277 207 258 305 338 199 83 129 173 85 71 59 64 48 78 58 47 41 21 10 323 308 206 215 203 200 200 200 201 198 196 192 185 195 195 196 199 199 200 221 218 213 206 205
290 22 258 330 338 54 37 238 139 134 79 62 85 80 79 75 63 58 63 50 18 271 161 174 166 160 164 178 187 188 182 179 179 187 187 183 186 193 202 210 196 192 187 193
330 309 356 279 355 19 91 54 106 110 101 84 78 76 75 78 63 64 70 77 96 118 147 149 146 148 146 159 164 167 172 175 177 185 192 196 193 195 189 180 175 184 184 185
69 325 291 327 329 262 44 89 100 94 87 79 77 69 61 59 70 76 75 81 66 87 331 139 133 131 134 146 150 155 165 176 186 196 193 186 179 177 175 174 170 167 175 175